{"data":{"norad_id":57202,"epoch":"2026-05-25T03:38:15.690336Z","epoch_age_seconds":61874,"freshness":"FRESH","line1":"1 57202U 23091AN  26145.15157049  .00004343  00000+0  21143-3 0  9998","line2":"2 57202  97.5129 204.0920 0009649 179.7095 180.4146 15.18864629160465","mean_motion":15.18864629,"eccentricity":0.0009649,"inclination_deg":97.5129,"raan_deg":204.092,"arg_perigee_deg":179.7095,"mean_anomaly_deg":180.4146,"bstar":0.00021143,"rev_number":16046,"period_min":94.807659122859,"perigee_km":502.62510173954,"apogee_km":515.91642123766,"semimajor_km":6887.4077614886,"source":"CELESTRAK","updated_at":"2026-05-25T13:37:59.935184Z"}}